• In Kazakhstan
  • List of Countries
  • For 7 days
  • Water Temperature
  • Weather Map
  • News
  • Weather Widgets
  • user-avatar
    Login

    Hourly Weather Kyzylorda

    Today, 28 February, Friday

    Time Temperature Precipitation Wind Pressure Humidity
    00:00 +1°C° 0 mm 2 mps 761 mmHg 60%
    01:00 +1°C° 0 mm 2 mps 761 mmHg 59%
    02:00 0°C° 0 mm 3 mps 761 mmHg 61%
    03:00 0°C° 0 mm 3 mps 761 mmHg 62%
    04:00 -1°C° 0 mm 3 mps 761 mmHg 65%
    05:00 -1°C° 0 mm 3 mps 761 mmHg 66%
    06:00 -1°C° 0 mm 3 mps 761 mmHg 67%
    07:00 -1°C° 0 mm 3 mps 761 mmHg 68%
    08:00 -1°C° 0 mm 4 mps 760 mmHg 61%
    09:00 0°C° 0 mm 4 mps 760 mmHg 54%
    10:00 +2°C° 0 mm 5 mps 760 mmHg 47%
    11:00 +2°C° 0 mm 5 mps 760 mmHg 47%
    12:00 +3°C° 0 mm 6 mps 759 mmHg 46%
    13:00 +4°C° 0 mm 6 mps 758 mmHg 45%
    14:00 +4°C° 0 mm 7 mps 758 mmHg 46%
    15:00 +4°C° 0 mm 7 mps 758 mmHg 46%
    16:00 +4°C° 0 mm 7 mps 757 mmHg 47%
    17:00 +3°C° 0 mm 6 mps 757 mmHg 50%
    18:00 +2°C° 0 mm 6 mps 757 mmHg 53%
    19:00 +1°C° 0 mm 6 mps 757 mmHg 56%
    20:00 -1°C° 0 mm 6 mps 757 mmHg 57%
    21:00 -1°C° 0 mm 6 mps 756 mmHg 58%
    22:00 -1°C° 0 mm 6 mps 756 mmHg 59%
    23:00 -1°C° 0 mm 5 mps 755 mmHg 59%

    Tomorrow, 29 February, Saturday

    Time Temperature Precipitation Wind Pressure Humidity
    00:00 -1°C° 0 mm 5 mps 755 mmHg 60%
    01:00 -1°C° 0 mm 4 mps 754 mmHg 60%
    02:00 -1°C° 0 mm 4 mps 754 mmHg 61%
    03:00 -1°C° 0 mm 4 mps 754 mmHg 62%
    04:00 -1°C° 0 mm 4 mps 754 mmHg 62%
    05:00 -1°C° 0 mm 4 mps 754 mmHg 65%
    06:00 -1°C° 0 mm 4 mps 754 mmHg 67%
    07:00 -1°C° 0 mm 4 mps 753 mmHg 70%
    08:00 0°C° 0 mm 4 mps 753 mmHg 63%
    09:00 +3°C° 0 mm 4 mps 753 mmHg 57%
    10:00 +5°C° 0 mm 3 mps 753 mmHg 50%
    11:00 +7°C° 0 mm 3 mps 752 mmHg 47%
    12:00 +8°C° 0 mm 2 mps 752 mmHg 44%
    13:00 +9°C° 0 mm 2 mps 752 mmHg 40%
    14:00 +9°C° 0 mm 2 mps 751 mmHg 42%
    15:00 +10°C° 0 mm 2 mps 751 mmHg 44%
    16:00 +10°C° 0 mm 2 mps 750 mmHg 45%
    17:00 +9°C° 0 mm 2 mps 750 mmHg 49%
    18:00 +8°C° 0 mm 2 mps 750 mmHg 52%
    19:00 +7°C° 0 mm 3 mps 750 mmHg 56%
    20:00 +5°C° 0 mm 3 mps 750 mmHg 56%
    21:00 +6°C° 0 mm 2 mps 750 mmHg 55%
    22:00 +6°C° 0 mm 2 mps 750 mmHg 55%
    23:00 +6°C° 0 mm 2 mps 750 mmHg 55%

    Day after tomorrow, 1 March, Sunday

    Time Temperature Precipitation Wind Pressure Humidity
    00:00 +6°C° 0 mm 2 mps 749 mmHg 56%
    01:00 +6°C° 0 mm 2 mps 749 mmHg 56%
    02:00 +6°C° 0 mm 2 mps 749 mmHg 56%
    03:00 +4°C° 0 mm 3 mps 749 mmHg 56%
    04:00 +4°C° 0 mm 3 mps 749 mmHg 56%
    05:00 +4°C° 0 mm 3 mps 749 mmHg 57%
    06:00 +5°C° 0 mm 3 mps 749 mmHg 57%
    07:00 +5°C° 0 mm 3 mps 749 mmHg 58%
    08:00 +7°C° 0 mm 3 mps 749 mmHg 55%
    09:00 +8°C° 0 mm 4 mps 749 mmHg 52%
    10:00 +10°C° 0 mm 4 mps 749 mmHg 49%
    11:00 +12°C° 0 mm 4 mps 748 mmHg 46%
    12:00 +13°C° 0 mm 4 mps 748 mmHg 43%
    13:00 +15°C° 0 mm 4 mps 748 mmHg 40%
    14:00 +16°C° 0 mm 3 mps 747 mmHg 42%
    15:00 +16°C° 0 mm 2 mps 747 mmHg 45%
    16:00 +16°C° 0 mm 2 mps 747 mmHg 48%
    17:00 +14°C° 0 mm 2 mps 747 mmHg 50%
    18:00 +13°C° 0 mm 2 mps 747 mmHg 53%
    19:00 +12°C° 0 mm 1 mps 747 mmHg 56%
    20:00 +11°C° 0 mm 1 mps 747 mmHg 57%
    21:00 +11°C° 0 mm 1 mps 747 mmHg 59%
    22:00 +10°C° 0 mm 1 mps 747 mmHg 60%
    23:00 +10°C° 0 mm 1 mps 747 mmHg 62%

    2 March, Monday

    Time Temperature Precipitation Wind Pressure Humidity
    00:00 +10°C° 0 mm 1 mps 747 mmHg 64%
    01:00 +9°C° 0 mm 2 mps 747 mmHg 66%
    02:00 +9°C° 0 mm 2 mps 747 mmHg 66%
    03:00 +9°C° 0 mm 2 mps 747 mmHg 65%
    04:00 +9°C° 0 mm 2 mps 747 mmHg 65%
    05:00 +8°C° 0 mm 3 mps 747 mmHg 68%
    06:00 +8°C° 0 mm 3 mps 747 mmHg 71%
    07:00 +7°C° 0 mm 3 mps 747 mmHg 73%
    08:00 +8°C° 0 mm 4 mps 748 mmHg 71%
    09:00 +10°C° 0 mm 4 mps 748 mmHg 69%
    10:00 +10°C° 0 mm 5 mps 748 mmHg 67%
    11:00 +12°C° 0 mm 5 mps 748 mmHg 63%
    12:00 +13°C° 0 mm 5 mps 748 mmHg 59%
    13:00 +14°C° 0 mm 5 mps 748 mmHg 55%
    14:00 +14°C° 0 mm 5 mps 748 mmHg 56%
    15:00 +13°C° 0 mm 5 mps 749 mmHg 57%
    16:00 +13°C° 0 mm 6 mps 749 mmHg 58%
    17:00 +10°C° 0 mm 6 mps 749 mmHg 63%
    18:00 +9°C° 0 mm 6 mps 750 mmHg 68%
    19:00 +7°C° 0 mm 6 mps 750 mmHg 73%
    20:00 +4°C° 0 mm 6 mps 751 mmHg 74%
    21:00 +3°C° 0 mm 6 mps 751 mmHg 75%
    22:00 +2°C° 0 mm 7 mps 751 mmHg 76%
    23:00 +1°C° 0 mm 6 mps 752 mmHg 77%

    3 March, Tuesday

    Time Temperature Precipitation Wind Pressure Humidity
    00:00 -1°C° 0 mm 6 mps 752 mmHg 79%
    01:00 -2°C° 0 mm 6 mps 752 mmHg 80%
    02:00 -3°C° 0 mm 6 mps 752 mmHg 80%
    03:00 -4°C° 0 mm 6 mps 752 mmHg 80%
    04:00 -4°C° 0 mm 6 mps 753 mmHg 80%
    05:00 -4°C° 0 mm 6 mps 753 mmHg 80%
    06:00 -4°C° 0 mm 6 mps 753 mmHg 80%
    07:00 -6°C° 0 mm 7 mps 754 mmHg 80%
    08:00 -4°C° 0 mm 7 mps 754 mmHg 77%
    09:00 -3°C° 0 mm 7 mps 754 mmHg 75%
    10:00 -3°C° 0 mm 7 mps 754 mmHg 73%
    11:00 -2°C° 0 mm 6 mps 754 mmHg 68%
    12:00 -1°C° 0 mm 6 mps 754 mmHg 64%
    13:00 +1°C° 0 mm 6 mps 754 mmHg 60%
    14:00 0°C° 0 mm 7 mps 754 mmHg 59%
    15:00 0°C° 0 mm 7 mps 754 mmHg 59%
    16:00 0°C° 0 mm 7 mps 754 mmHg 59%
    17:00 0°C° 0 mm 7 mps 754 mmHg 61%
    18:00 -1°C° 0 mm 6 mps 755 mmHg 64%
    19:00 -1°C° 0 mm 5 mps 755 mmHg 66%
    20:00 -1°C° 0 mm 5 mps 756 mmHg 69%
    21:00 -2°C° 0 mm 5 mps 756 mmHg 72%
    22:00 -4°C° 0 mm 6 mps 756 mmHg 75%
    23:00 -4°C° 0 mm 6 mps 756 mmHg 75%

    4 March, Wednesday

    Time Temperature Precipitation Wind Pressure Humidity
    00:00 -4°C° 0 mm 6 mps 756 mmHg 76%
    01:00 -5°C° 0 mm 6 mps 756 mmHg 76%
    02:00 -5°C° 0 mm 6 mps 756 mmHg 75%
    03:00 -5°C° 0 mm 5 mps 756 mmHg 74%
    04:00 -5°C° 0 mm 5 mps 756 mmHg 73%
    05:00 -5°C° 0 mm 5 mps 757 mmHg 72%
    06:00 -5°C° 0 mm 6 mps 757 mmHg 71%
    07:00 -5°C° 0 mm 6 mps 757 mmHg 69%
    08:00 -4°C° 0 mm 6 mps 757 mmHg 65%
    09:00 -3°C° 0 mm 7 mps 757 mmHg 61%
    10:00 -2°C° 0 mm 7 mps 757 mmHg 57%
    11:00 -1°C° 0 mm 7 mps 757 mmHg 55%
    12:00 0°C° 0 mm 8 mps 757 mmHg 54%
    13:00 +1°C° 0 mm 8 mps 757 mmHg 53%
    14:00 +1°C° 0 mm 8 mps 757 mmHg 54%
    15:00 +1°C° 0 mm 8 mps 756 mmHg 54%
    16:00 +1°C° 0 mm 8 mps 756 mmHg 55%
    17:00 0°C° 0 mm 8 mps 756 mmHg 57%
    18:00 -1°C° 0 mm 7 mps 757 mmHg 60%
    19:00 -2°C° 0 mm 7 mps 757 mmHg 63%
    20:00 -2°C° 0 mm 7 mps 757 mmHg 63%
    21:00 -3°C° 0 mm 7 mps 757 mmHg 63%
    22:00 -4°C° 0 mm 6 mps 757 mmHg 63%
    23:00 -4°C° 0 mm 6 mps 757 mmHg 60%
    Show more